Location: ????????
(55.6189°N, 38.3031°E)
Time: 03:55:49
(UTC+00:00)

NOSS 2-1 (D) - Pass Details

Date: 15 November 2019
Orbit: 459 x 1744 km, 63.3° (Epoch: 04 December)

Event Time Altitude Azimuth Distance (km) Brightness Sun altitude
Exits shadow 03:22:30 21° 301° (WNW) 1,240 4.5 -13.5°
Maximum altitude 03:24:25 33° 350° (N) 994 4.4 -13.3°
Drops below altitude 10° 03:28:43 10° 55° (NE) 2,167 6.9 -12.7°
Sets 03:31:39 0° 64° (ENE) 3,300 8.1 -12.3°
